When you browse on this site, cookies collect data to enhance your experience and personalize the content and advertising you see.
Visit our Privacy Policy to learn more. By continuing to use the site, you agree to this use of cookies and data.

Météo par heure à Griboedovo

Ce jour, 9 Juillet, Jeudi

Heure Température Précipitation Vent Pression Humidité
00:00 +15°C° 0.6 mm 6 m/s 740 mmHg 96%
01:00 +15°C° 1.2 mm 5 m/s 741 mmHg 95%
02:00 +14°C° 1.2 mm 5 m/s 741 mmHg 95%
03:00 +13°C° 0 mm 4 m/s 741 mmHg 92%
04:00 +13°C° 0.3 mm 4 m/s 741 mmHg 93%
05:00 +13°C° 0.3 mm 5 m/s 742 mmHg 93%
06:00 +12°C° 0.3 mm 5 m/s 742 mmHg 93%
07:00 +13°C° 0 mm 5 m/s 742 mmHg 90%
08:00 +14°C° 0 mm 5 m/s 743 mmHg 87%
09:00 +16°C° 0 mm 5 m/s 743 mmHg 83%
10:00 +17°C° 0 mm 5 m/s 744 mmHg 79%
11:00 +19°C° 0 mm 4 m/s 744 mmHg 74%
12:00 +20°C° 0 mm 4 m/s 745 mmHg 70%
13:00 +20°C° 0 mm 4 m/s 745 mmHg 69%
14:00 +20°C° 0 mm 4 m/s 745 mmHg 68%
15:00 +21°C° 0 mm 3 m/s 746 mmHg 67%
16:00 +20°C° 0.1 mm 3 m/s 746 mmHg 68%
17:00 +20°C° 0.1 mm 3 m/s 746 mmHg 70%
18:00 +20°C° 0.1 mm 3 m/s 746 mmHg 71%
19:00 +18°C° 0 mm 3 m/s 746 mmHg 76%
20:00 +17°C° 0 mm 3 m/s 746 mmHg 82%
21:00 +15°C° 0 mm 2 m/s 746 mmHg 87%
22:00 +14°C° 0 mm 2 m/s 747 mmHg 88%
23:00 +14°C° 0 mm 2 m/s 747 mmHg 90%

Demain, 10 Juillet, Vendredi

Heure Température Précipitation Vent Pression Humidité
00:00 +13°C° 0 mm 2 m/s 748 mmHg 91%
01:00 +13°C° 0 mm 2 m/s 748 mmHg 91%
02:00 +12°C° 0 mm 2 m/s 748 mmHg 91%
03:00 +12°C° 0 mm 2 m/s 749 mmHg 91%
04:00 +12°C° 0 mm 2 m/s 749 mmHg 90%
05:00 +13°C° 0 mm 2 m/s 749 mmHg 89%
06:00 +13°C° 0 mm 2 m/s 750 mmHg 88%
07:00 +15°C° 0 mm 2 m/s 750 mmHg 82%
08:00 +16°C° 0 mm 2 m/s 750 mmHg 76%
09:00 +18°C° 0 mm 2 m/s 750 mmHg 70%
10:00 +19°C° 0 mm 2 m/s 750 mmHg 67%
11:00 +20°C° 0 mm 2 m/s 750 mmHg 63%
12:00 +20°C° 0 mm 3 m/s 750 mmHg 60%
13:00 +21°C° 0 mm 3 m/s 750 mmHg 59%
14:00 +21°C° 0 mm 3 m/s 750 mmHg 59%
15:00 +22°C° 0 mm 3 m/s 750 mmHg 59%
16:00 +21°C° 0 mm 3 m/s 750 mmHg 62%
17:00 +21°C° 0 mm 3 m/s 750 mmHg 65%
18:00 +21°C° 0 mm 3 m/s 750 mmHg 69%
19:00 +20°C° 0 mm 3 m/s 750 mmHg 72%
20:00 +18°C° 0 mm 3 m/s 750 mmHg 75%
21:00 +17°C° 0 mm 3 m/s 750 mmHg 79%
22:00 +16°C° 0 mm 3 m/s 750 mmHg 80%
23:00 +16°C° 0 mm 3 m/s 750 mmHg 81%

Après-demain, 11 Juillet, Samedi

Heure Température Précipitation Vent Pression Humidité
00:00 +14°C° 0 mm 3 m/s 750 mmHg 83%
01:00 +14°C° 0 mm 3 m/s 751 mmHg 84%
02:00 +14°C° 0 mm 3 m/s 751 mmHg 85%
03:00 +13°C° 0 mm 3 m/s 751 mmHg 85%
04:00 +14°C° 0 mm 3 m/s 751 mmHg 85%
05:00 +14°C° 0 mm 3 m/s 750 mmHg 84%
06:00 +15°C° 0 mm 4 m/s 750 mmHg 84%
07:00 +17°C° 0 mm 4 m/s 751 mmHg 81%
08:00 +19°C° 0 mm 5 m/s 751 mmHg 78%
09:00 +21°C° 0 mm 5 m/s 751 mmHg 75%
10:00 +22°C° 0 mm 5 m/s 751 mmHg 73%
11:00 +23°C° 0 mm 5 m/s 750 mmHg 72%
12:00 +25°C° 0 mm 5 m/s 750 mmHg 71%
13:00 +26°C° 0 mm 6 m/s 750 mmHg 71%
14:00 +26°C° 0 mm 6 m/s 750 mmHg 71%
15:00 +26°C° 0 mm 6 m/s 750 mmHg 71%
16:00 +26°C° 0 mm 5 m/s 749 mmHg 73%
17:00 +26°C° 0 mm 5 m/s 749 mmHg 76%
18:00 +26°C° 0 mm 4 m/s 749 mmHg 78%
19:00 +25°C° 0 mm 4 m/s 749 mmHg 82%
20:00 +22°C° 0 mm 4 m/s 749 mmHg 87%
21:00 +21°C° 0 mm 3 m/s 749 mmHg 91%
22:00 +21°C° 0 mm 3 m/s 749 mmHg 91%
23:00 +20°C° 0 mm 3 m/s 749 mmHg 92%

12 Juillet, Dimanche

Heure Température Précipitation Vent Pression Humidité
00:00 +19°C° 0 mm 3 m/s 749 mmHg 92%
01:00 +19°C° 0 mm 3 m/s 749 mmHg 93%
02:00 +19°C° 0 mm 3 m/s 749 mmHg 93%
03:00 +18°C° 0 mm 3 m/s 749 mmHg 93%
04:00 +19°C° 0 mm 3 m/s 749 mmHg 92%
05:00 +19°C° 0 mm 3 m/s 748 mmHg 91%
06:00 +19°C° 0 mm 3 m/s 748 mmHg 91%
07:00 +21°C° 0 mm 2 m/s 748 mmHg 87%
08:00 +23°C° 0 mm 2 m/s 748 mmHg 82%
09:00 +25°C° 0 mm 2 m/s 748 mmHg 78%
10:00 +25°C° 0 mm 3 m/s 748 mmHg 75%
11:00 +26°C° 0 mm 3 m/s 748 mmHg 71%
12:00 +27°C° 0 mm 3 m/s 748 mmHg 68%
13:00 +28°C° 0.1 mm 3 m/s 748 mmHg 67%
14:00 +28°C° 0.1 mm 3 m/s 747 mmHg 66%
15:00 +28°C° 0.1 mm 3 m/s 747 mmHg 65%
16:00 +28°C° 0.1 mm 3 m/s 747 mmHg 67%
17:00 +28°C° 0.1 mm 2 m/s 746 mmHg 69%
18:00 +27°C° 0.1 mm 2 m/s 746 mmHg 71%
19:00 +26°C° 0 mm 2 m/s 746 mmHg 75%
20:00 +24°C° 0 mm 1 m/s 746 mmHg 78%
21:00 +23°C° 0 mm 1 m/s 746 mmHg 82%
22:00 +22°C° 0 mm 1 m/s 746 mmHg 83%
23:00 +21°C° 0 mm 1 m/s 746 mmHg 84%

13 Juillet, Lundi

Heure Température Précipitation Vent Pression Humidité
00:00 +20°C° 0 mm 2 m/s 745 mmHg 85%
01:00 +20°C° 0 mm 1 m/s 745 mmHg 86%
02:00 +19°C° 0 mm 1 m/s 745 mmHg 86%
03:00 +19°C° 0 mm 1 m/s 745 mmHg 86%
04:00 +19°C° 0 mm 1 m/s 744 mmHg 85%
05:00 +20°C° 0 mm 1 m/s 744 mmHg 84%
06:00 +20°C° 0 mm 1 m/s 744 mmHg 83%
07:00 +22°C° 0 mm 1 m/s 744 mmHg 79%
08:00 +23°C° 0 mm 2 m/s 744 mmHg 75%
09:00 +24°C° 0 mm 2 m/s 743 mmHg 71%
10:00 +25°C° 0 mm 2 m/s 743 mmHg 69%
11:00 +26°C° 0 mm 3 m/s 743 mmHg 67%
12:00 +27°C° 0 mm 3 m/s 743 mmHg 66%
13:00 +27°C° 0 mm 3 m/s 743 mmHg 64%
14:00 +27°C° 0 mm 2 m/s 742 mmHg 63%
15:00 +28°C° 0 mm 2 m/s 742 mmHg 62%
16:00 +27°C° 1.3 mm 2 m/s 742 mmHg 69%
17:00 +26°C° 1.3 mm 2 m/s 741 mmHg 75%
18:00 +25°C° 1.3 mm 2 m/s 741 mmHg 82%
19:00 +24°C° 1.1 mm 1 m/s 741 mmHg 84%
20:00 +23°C° 1.1 mm 1 m/s 741 mmHg 85%
21:00 +22°C° 1.1 mm 1 m/s 741 mmHg 87%
22:00 +21°C° 0.5 mm 1 m/s 740 mmHg 88%
23:00 +21°C° 0.5 mm 1 m/s 740 mmHg 89%

14 Juillet, Mardi

Heure Température Précipitation Vent Pression Humidité
00:00 +21°C° 0.5 mm 1 m/s 740 mmHg 90%
01:00 +21°C° 0.1 mm 1 m/s 740 mmHg 92%
02:00 +19°C° 0.1 mm 2 m/s 739 mmHg 93%
03:00 +19°C° 0.1 mm 2 m/s 739 mmHg 94%
04:00 +19°C° 0.4 mm 2 m/s 739 mmHg 95%
05:00 +19°C° 0.4 mm 3 m/s 738 mmHg 95%
06:00 +19°C° 0.4 mm 3 m/s 738 mmHg 96%
07:00 +19°C° 0.4 mm 4 m/s 738 mmHg 95%
08:00 +20°C° 0.4 mm 4 m/s 738 mmHg 94%
09:00 +20°C° 0.4 mm 5 m/s 738 mmHg 93%
10:00 +21°C° 0.2 mm 4 m/s 737 mmHg 92%
11:00 +22°C° 0.2 mm 4 m/s 737 mmHg 91%
12:00 +22°C° 0.2 mm 4 m/s 737 mmHg 90%
13:00 +23°C° 0.7 mm 4 m/s 737 mmHg 86%
14:00 +25°C° 0.7 mm 4 m/s 736 mmHg 82%
15:00 +26°C° 0.7 mm 3 m/s 736 mmHg 78%
16:00 +26°C° 0.9 mm 3 m/s 736 mmHg 79%
17:00 +25°C° 0.9 mm 3 m/s 736 mmHg 81%
18:00 +25°C° 0.9 mm 3 m/s 736 mmHg 83%
19:00 +24°C° 0.3 mm 3 m/s 736 mmHg 86%
20:00 +22°C° 0.3 mm 3 m/s 736 mmHg 89%
21:00 +20°C° 0.3 mm 2 m/s 736 mmHg 93%
22:00 +19°C° 0.1 mm 2 m/s 736 mmHg 94%
23:00 +18°C° 0.1 mm 2 m/s 736 mmHg 95%
Voir plus